Tracking 23762 objects as of 22-Oct-2021
HD Live streaming from Space Station
objects crossing your sky now

ARIANE 5 R/B

Track ARIANE 5 R/B now!


NORAD ID: 40942
Int'l Code: 2015-054C
Perigee: 225.9 km
Apogee: 32,599.8 km
Inclination: 6.3 °
Period: 570.4 minutes
Semi major axis: 22783 km
RCS: Unknown
Launch date: September 30, 2015
Source: France (FR)
Launch site: FRENCH GUIANA (FRGUI)

Note: This is a ROCKET BODY
aabbcc
Your satellite tracking list
Your tracking list is empty




NASA's NSSDC Master Catalog

Two Line Element Set (TLE):
1 40942U 15054C   21294.21771373  .00012902  00000-0  15703-2 0  9995
2 40942   6.3481 233.0386 7104587 333.0600   3.2920  2.52442648 53387
Source of the keplerian elements: AFSPC